NOAA 17 DEB, 48737

Orbit data source: Space-Track

NOAA 17 DEB, 48737 is space debris in SSO originally from a launch on Mon, 24 Jun 2002 UTC launched from the Air Force Western Test Range (AFWTR). Debris objects in space refer to the collection of defunct objects orbiting the Earth. Examples of debris include non-operational satellites, rocket bodies, and fragments generated from explosions, collisions, or faulty payload assembly.

Loading next visibility...
Identifier
48737, 2002-032BW
Orbit
SSO
Country
Flag of USUS
Related business
Manufacturer
Unknown
Mission
Spacecraft
Bus & Motor
Unknown
Mass
Unknown
Launch date (UTC)
2002-06-24 (23 years ago)
Launch vehicle
Unknown
Launch site
Air Force Western Test Range (AFWTR)
Object type
Payload
Rocket body
Debris
Shape & HBR
Unknown shape, 0.1 m
Radar Cross Section
Small (<0.1 m²)

Expand to show TLE details & history
Last TLE update: 19 hours ago

TLE from 19 hours ago
0 NOAA 17 DEB
1 48737U 02032BW  25348.83173658  .00022187  00000-0  19954-2 0  9999
2 48737  98.7293  26.8132 0017251 134.9696 225.2924 14.95559038248475
Epoch: 2025-12-14T19:57Z
TLE epoch observation values (Epoch: 2025-12-14T19:57:42.040Z)
Latitude
-0°
Longitude
3.64903°
Altitude
592.112 km
Speed
7.559 km/s
True Right ascension
01h 47m 15s
True Declination
0° 00' 00"
Sunlit
Object was in full shadow at epoch
Visualization orbit readout
Latitude
Unknown
Longitude
Unknown
Altitude
Unknown
Speed
Unknown
Apparent Right ascension
Unknown
Apparent Declination
Unknown
Sunlit
N/A
Visualization observer readout
Local Sidereal Time
13:22:44
Azimuth
Unknown
Elevation
Unknown
Doppler factor
Unknown
Orbital elements
Apogee altitude
589.697 km
Perigee altitude
565.698 km
Semi-major axis
6,955.834 km
Eccentricity
0.00173
Inclination
98.7293°
RAAN
26.8132°
Arg. of periapsis
134.9696°
True anomaly
225.15212°
Mean anomaly
225.2924°
Eccentric anomaly
225.22224°
Mean motion
3.74127 °/min
Orbital period
96.22 mins
BSTAR
0.0019954
Loading maneuver chart data...
Computing Atmospheric mass density...
Loading historical data...
Loading historical data...
Loading historical data...
Loading historical data...
Loading historical data...
Loading historical data...
Loading historical data...

Documentation

Showing up to 5 results
|